GW1353 Weather Reports


time (UTC)temp
C
wind
direction
speed
KPH
gust
KPH
rain 1hr
cm
rain 24hr
cm
rain mn
cm
humidity
%
barometer
mb
20260504003048 25 360 12.9 25.7 0.00 0.00 0.00 12 1023.5
20260504001549 25 360 12.9 24.1 0.00 0.00 0.00 11 1023.4
20260504000056 25 220 9.7 24.1 0.00 0.00 0.00 11 1023.3
20260503234552 25 232 9.7 20.9 0.00 0.00 0.00 9 1023.4
20260503233049 26 248 9.7 20.9 0.00 0.00 0.00 10 1023.4
20260503231549 25 279 6.4 25.7 0.00 0.00 0.00 8 1023.4
20260503230056 26 234 11.3 24.1 0.00 0.00 0.00 10 1023.4
20260503224549 26 225 12.9 24.1 0.00 0.00 0.00 10 1023.6
20260503223052 25 210 14.5 25.7 0.00 0.00 0.00 12 1023.6
20260503221550 26 246 6.4 27.4 0.00 0.00 0.00 11 1023.8
20260503220056 25 261 12.9 25.7 0.00 0.00 0.00 11 1023.9
20260503214548 26 207 4.8 25.7 0.00 0.00 0.00 10 1023.9
20260503213048 25 236 11.3 32.2 0.00 0.00 0.00 13 1024.3
20260503211552 25 192 9.7 29.0 0.00 0.00 0.00 13 1024.4
20260503210052 25 200 12.9 32.2 0.00 0.00 0.00 12 1024.9
20260503204551 25 260 11.3 27.4 0.00 0.00 0.00 12 1025.0
20260503203054 25 220 6.4 22.5 0.00 0.00 0.00 12 1025.4
20260503201553 24 360 17.7 30.6 0.00 0.00 0.00 13 1025.7
20260503200050 24 200 11.3 25.7 0.00 0.00 0.00 16 1025.9
20260503194559 24 189 11.3 24.1 0.00 0.00 0.00 16 1026.0
20260503193050 23 242 4.8 20.9 0.00 0.00 0.00 16 1026.3
20260503191553 23 259 8.0 17.7 0.00 0.00 0.00 16 1026.4
20260503190055 23 282 8.0 19.3 0.00 0.00 0.00 15 1026.7
20260503184559 22 269 11.3 20.9 0.00 0.00 0.00 17 1026.8
20260503183049 22 360 9.7 20.9 0.00 0.00 0.00 17 1027.1
20260503181553 22 360 9.7 27.4 0.00 0.00 0.00 19 1027.1
20260503180109 21 360 4.8 29.0 0.00 0.00 0.00 18 1027.3
20260503174553 21 360 4.8 19.3 0.00 0.00 0.00 18 1027.4
20260503173103 21 360 4.8 14.5 0.00 0.00 0.00 20 1027.5
20260503171550 21 360 8.0 19.3 0.00 0.00 0.00 21 1027.6
20260503160107 18 263 4.8 16.1 0.00 0.00 0.00 28 1027.8
20260503081550 15 102 4.8 14.5 0.00 0.00 0.00 62 1025.5
20260503071557 16 338 1.6 8.0 0.00 0.00 0.00 39 1025.8
20260503060110 17 280 3.2 9.7 0.00 0.00 0.00 34 1026.3
20260503054617 17 260 6.4 14.5 0.00 0.00 0.00 34 1026.0
20260503053052 18 360 3.2 6.4 0.00 0.00 0.00 34 1025.7
20260503051552 18 360 3.2 9.7 0.00 0.00 0.00 33 1025.8
20260503050054 18 360 4.8 16.1 0.00 0.00 0.00 33 1025.8
20260503044556 18 360 8.0 12.9 0.00 0.00 0.00 33 1025.8
20260503043104 18 360 4.8 12.9 0.00 0.00 0.00 32 1025.7
20260503041600 19 360 4.8 14.5 0.00 0.00 0.00 31 1025.7
20260503040058 19 360 4.8 14.5 0.00 0.00 0.00 30 1025.6
20260503034559 19 360 3.2 14.5 0.00 0.00 0.00 30 1025.3
20260503033053 20 360 8.0 16.1 0.00 0.00 0.00 30 1025.2
20260503031551 20 360 8.0 17.7 0.00 0.00 0.00 29 1024.7
20260503030057 20 360 9.7 19.3 0.00 0.00 0.00 28 1024.7
20260503024553 20 360 8.0 16.1 0.00 0.00 0.00 28 1024.5
20260503023100 21 360 6.4 16.1 0.00 0.00 0.00 27 1024.4
20260503021559 21 360 8.0 16.1 0.00 0.00 0.00 28 1024.0
20260503020057 21 360 8.0 25.7 0.00 0.00 0.00 29 1023.6
20260503014549 22 360 8.0 20.9 0.00 0.00 0.00 29 1023.3
20260503013052 22 360 6.4 24.1 0.00 0.00 0.00 28 1023.1
20260503011546 22 360 12.9 27.4 0.00 0.00 0.00 27 1023.0
20260503010055 23 360 12.9 32.2 0.00 0.00 0.00 26 1022.7
20260503004559 23 360 14.5 33.8 0.00 0.00 0.00 26 1022.5